Вернуться в каталог

SL-8 R/B

АктивенLEO
NORAD 6020·ROCKET BODY·🇷🇺 Russia

Запущен May 6, 1972 с Plesetsk Cosmodrome

Loading…

Ближайшие Пролёты (ближайшие 24 часа)

TLE

СвежийSource: Space-Track

Эпоха: Sep 14, 2026, 19:25 UTC

1 06020U 72035B   26257.80947200 -.00000031  00000-0 -81506-5 0  9998
2 06020  74.0234  30.6652 0021260 334.8323 188.0838 13.79167002734342

Отслеживайте SL-8 R/B в реальном времени с AllMySat

Download on the App Store